owner,sensor,date,latitude,longitude,vertical_datum,sea_water_temperature,qcFlag 
NERRS,ioos:station:NOAA.NERRS:marscwq:1,2016-01-01T16:30:00Z,27.8383,-97.0503,0.0,13.1,2 
NERRS,ioos:station:NOAA.NERRS:marscwq:1,2016-01-01T17:30:00Z,27.8383,-97.0503,0.0,13.1,2 
NERRS,ioos:station:NOAA.NERRS:marscwq:1,2016-01-01T18:30:00Z,27.8383,-97.0503,0.0,13.7,2 
NERRS,ioos:station:NOAA.NERRS:marscwq:1,2016-01-02T21:30:00Z,27.8383,-97.0503,0.0,13.0,2 
NERRS,ioos:station:NOAA.NERRS:marscwq:1,2016-01-02T23:30:00Z,27.8383,-97.0503,0.0,13.6,2 
NERRS,ioos:station:NOAA.NERRS:marscwq:1,2016-01-03T01:30:00Z,27.8383,-97.0503,0.0,13.9,2 
NERRS,ioos:station:NOAA.NERRS:marscwq:1,2016-01-03T02:30:00Z,27.8383,-97.0503,0.0,14.5,2 
NERRS,ioos:station:NOAA.NERRS:marscwq:1,2016-01-03T03:30:00Z,27.8383,-97.0503,0.0,14.8,2 
NERRS,ioos:station:NOAA.NERRS:marscwq:1,2016-01-03T04:30:00Z,27.8383,-97.0503,0.0,14.8,2 
NERRS,ioos:station:NOAA.NERRS:marscwq:1,2016-01-03T05:30:00Z,27.8383,-97.0503,0.0,14.7,2 
NERRS,ioos:station:NOAA.NERRS:marscwq:1,2016-01-03T06:30:00Z,27.8383,-97.0503,0.0,14.4,2 
NERRS,ioos:station:NOAA.NERRS:marscwq:1,2016-01-03T07:30:00Z,27.8383,-97.0503,0.0,14.6,2 
NERRS,ioos:station:NOAA.NERRS:marscwq:1,2016-01-03T08:30:00Z,27.8383,-97.0503,0.0,13.1,2 
NERRS,ioos:station:NOAA.NERRS:marscwq:1,2016-01-03T09:30:00Z,27.8383,-97.0503,0.0,12.3,2 
NERRS,ioos:station:NOAA.NERRS:marscwq:1,2016-01-03T10:30:00Z,27.8383,-97.0503,0.0,12.5,2 
NERRS,ioos:station:NOAA.NERRS:marscwq:1,2016-01-03T11:30:00Z,27.8383,-97.0503,0.0,11.9,2 
NERRS,ioos:station:NOAA.NERRS:marscwq:1,2016-01-03T12:30:00Z,27.8383,-97.0503,0.0,12.1,2 
NERRS,ioos:station:NOAA.NERRS:marscwq:1,2016-01-03T13:30:00Z,27.8383,-97.0503,0.0,11.4,2 
NERRS,ioos:station:NOAA.NERRS:marscwq:1,2016-01-03T14:30:00Z,27.8383,-97.0503,0.0,11.6,2 
NERRS,ioos:station:NOAA.NERRS:marscwq:1,2016-01-03T15:30:00Z,27.8383,-97.0503,0.0,11.6,2 
NERRS,ioos:station:NOAA.NERRS:marscwq:1,2016-01-03T16:30:00Z,27.8383,-97.0503,0.0,11.7,2 
NERRS,ioos:station:NOAA.NERRS:marscwq:1,2016-01-03T17:30:00Z,27.8383,-97.0503,0.0,11.8,2 
NERRS,ioos:station:NOAA.NERRS:marscwq:1,2016-01-03T18:30:00Z,27.8383,-97.0503,0.0,12.4,2 
NERRS,ioos:station:NOAA.NERRS:marscwq:1,2016-01-03T19:30:00Z,27.8383,-97.0503,0.0,13.7,2 
NERRS,ioos:station:NOAA.NERRS:marscwq:1,2016-01-03T20:30:00Z,27.8383,-97.0503,0.0,14.3,2 
NERRS,ioos:station:NOAA.NERRS:marscwq:1,2016-01-03T21:30:00Z,27.8383,-97.0503,0.0,14.4,2 
NERRS,ioos:station:NOAA.NERRS:marscwq:1,2016-01-03T22:30:00Z,27.8383,-97.0503,0.0,14.4,2 
NERRS,ioos:station:NOAA.NERRS:marscwq:1,2016-01-03T23:30:00Z,27.8383,-97.0503,0.0,14.5,2 
NERRS,ioos:station:NOAA.NERRS:marscwq:1,2016-01-04T00:30:00Z,27.8383,-97.0503,0.0,14.6,2 
NERRS,ioos:station:NOAA.NERRS:marscwq:1,2016-01-04T01:30:00Z,27.8383,-97.0503,0.0,14.4,2 
NERRS,ioos:station:NOAA.NERRS:marscwq:1,2016-01-04T02:30:00Z,27.8383,-97.0503,0.0,14.3,2 
NERRS,ioos:station:NOAA.NERRS:marscwq:1,2016-01-04T04:00:00Z,27.8383,-97.0503,0.0,14.1,2 
NERRS,ioos:station:NOAA.NERRS:marscwq:1,2016-01-04T04:30:00Z,27.8383,-97.0503,0.0,14.2,2 
NERRS,ioos:station:NOAA.NERRS:marscwq:1,2016-01-04T05:30:00Z,27.8383,-97.0503,0.0,13.6,2 
NERRS,ioos:station:NOAA.NERRS:marscwq:1,2016-01-04T06:30:00Z,27.8383,-97.0503,0.0,13.5,2 
NERRS,ioos:station:NOAA.NERRS:marscwq:1,2016-01-04T07:30:00Z,27.8383,-97.0503,0.0,12.4,2 
NERRS,ioos:station:NOAA.NERRS:marscwq:1,2016-01-04T08:30:00Z,27.8383,-97.0503,0.0,11.9,2 
NERRS,ioos:station:NOAA.NERRS:marscwq:1,2016-01-04T09:30:00Z,27.8383,-97.0503,0.0,11.7,2 
NERRS,ioos:station:NOAA.NERRS:marscwq:1,2016-01-04T10:30:00Z,27.8383,-97.0503,0.0,11.5,2 
NERRS,ioos:station:NOAA.NERRS:marscwq:1,2016-01-04T13:30:00Z,27.8383,-97.0503,0.0,11.2,2 
NERRS,ioos:station:NOAA.NERRS:marscwq:1,2016-01-04T14:30:00Z,27.8383,-97.0503,0.0,11.1,2 
NERRS,ioos:station:NOAA.NERRS:marscwq:1,2016-01-04T16:30:00Z,27.8383,-97.0503,0.0,11.2,2 
NERRS,ioos:station:NOAA.NERRS:marscwq:1,2016-01-04T17:30:00Z,27.8383,-97.0503,0.0,11.3,2 
NERRS,ioos:station:NOAA.NERRS:marscwq:1,2016-01-04T18:30:00Z,27.8383,-97.0503,0.0,11.4,2 
NERRS,ioos:station:NOAA.NERRS:marscwq:1,2016-01-04T19:30:00Z,27.8383,-97.0503,0.0,13.5,2 
NERRS,ioos:station:NOAA.NERRS:marscwq:1,2016-01-04T20:30:00Z,27.8383,-97.0503,0.0,13.9,2 
NERRS,ioos:station:NOAA.NERRS:marscwq:1,2016-01-04T22:30:00Z,27.8383,-97.0503,0.0,15.0,2 
NERRS,ioos:station:NOAA.NERRS:marscwq:1,2016-01-04T23:30:00Z,27.8383,-97.0503,0.0,15.2,2 
NERRS,ioos:station:NOAA.NERRS:marscwq:1,2016-01-05T00:30:00Z,27.8383,-97.0503,0.0,15.2,2 
NERRS,ioos:station:NOAA.NERRS:marscwq:1,2016-01-05T01:30:00Z,27.8383,-97.0503,0.0,15.2,2 
NERRS,ioos:station:NOAA.NERRS:marscwq:1,2016-01-05T02:30:00Z,27.8383,-97.0503,0.0,15.0,2 
NERRS,ioos:station:NOAA.NERRS:marscwq:1,2016-01-05T03:30:00Z,27.8383,-97.0503,0.0,15.0,2 
NERRS,ioos:station:NOAA.NERRS:marscwq:1,2016-01-05T04:30:00Z,27.8383,-97.0503,0.0,14.9,2 
NERRS,ioos:station:NOAA.NERRS:marscwq:1,2016-01-05T05:30:00Z,27.8383,-97.0503,0.0,14.8,2 
NERRS,ioos:station:NOAA.NERRS:marscwq:1,2016-01-05T06:30:00Z,27.8383,-97.0503,0.0,14.8,2 
NERRS,ioos:station:NOAA.NERRS:marscwq:1,2016-01-05T07:30:00Z,27.8383,-97.0503,0.0,14.7,2 
NERRS,ioos:station:NOAA.NERRS:marscwq:1,2016-01-05T08:30:00Z,27.8383,-97.0503,0.0,14.7,2 
NERRS,ioos:station:NOAA.NERRS:marscwq:1,2016-01-05T10:30:00Z,27.8383,-97.0503,0.0,14.1,2 
NERRS,ioos:station:NOAA.NERRS:marscwq:1,2016-01-05T11:30:00Z,27.8383,-97.0503,0.0,13.1,2 
NERRS,ioos:station:NOAA.NERRS:marscwq:1,2016-01-05T13:30:00Z,27.8383,-97.0503,0.0,12.4,2 
NERRS,ioos:station:NOAA.NERRS:marscwq:1,2016-01-05T15:30:00Z,27.8383,-97.0503,0.0,12.4,2 
NERRS,ioos:station:NOAA.NERRS:marscwq:1,2016-01-05T16:30:00Z,27.8383,-97.0503,0.0,12.3,2 
NERRS,ioos:station:NOAA.NERRS:marscwq:1,2016-01-06T17:30:00Z,27.8383,-97.0503,0.0,13.6,2 
NERRS,ioos:station:NOAA.NERRS:marscwq:1,2016-01-06T18:30:00Z,27.8383,-97.0503,0.0,13.6,2 
NERRS,ioos:station:NOAA.NERRS:marscwq:1,2016-01-06T19:30:00Z,27.8383,-97.0503,0.0,14.8,2 
NERRS,ioos:station:NOAA.NERRS:marscwq:1,2016-01-06T21:30:00Z,27.8383,-97.0503,0.0,15.0,2 
NERRS,ioos:station:NOAA.NERRS:marscwq:1,2016-01-06T22:30:00Z,27.8383,-97.0503,0.0,15.0,2 
NERRS,ioos:station:NOAA.NERRS:marscwq:1,2016-01-07T01:30:00Z,27.8383,-97.0503,0.0,15.0,2 
NERRS,ioos:station:NOAA.NERRS:marscwq:1,2016-01-07T02:30:00Z,27.8383,-97.0503,0.0,15.0,2 
NERRS,ioos:station:NOAA.NERRS:marscwq:1,2016-01-07T03:30:00Z,27.8383,-97.0503,0.0,15.0,2 
NERRS,ioos:station:NOAA.NERRS:marscwq:1,2016-01-07T06:30:00Z,27.8383,-97.0503,0.0,14.9,2 
NERRS,ioos:station:NOAA.NERRS:marscwq:1,2016-01-07T10:30:00Z,27.8383,-97.0503,0.0,15.0,2 
NERRS,ioos:station:NOAA.NERRS:marscwq:1,2016-01-07T11:30:00Z,27.8383,-97.0503,0.0,15.0,2 
NERRS,ioos:station:NOAA.NERRS:marscwq:1,2016-01-07T17:30:00Z,27.8383,-97.0503,0.0,14.5,2 
NERRS,ioos:station:NOAA.NERRS:marscwq:1,2016-01-07T18:30:00Z,27.8383,-97.0503,0.0,14.5,2 
NERRS,ioos:station:NOAA.NERRS:marscwq:1,2016-01-07T19:30:00Z,27.8383,-97.0503,0.0,14.5,2 
NERRS,ioos:station:NOAA.NERRS:marscwq:1,2016-01-07T22:30:00Z,27.8383,-97.0503,0.0,15.4,2 
NERRS,ioos:station:NOAA.NERRS:marscwq:1,2016-01-07T23:30:00Z,27.8383,-97.0503,0.0,15.2,2 
NERRS,ioos:station:NOAA.NERRS:marscwq:1,2016-01-08T00:30:00Z,27.8383,-97.0503,0.0,15.2,2 
NERRS,ioos:station:NOAA.NERRS:marscwq:1,2016-01-08T01:30:00Z,27.8383,-97.0503,0.0,15.2,2 
NERRS,ioos:station:NOAA.NERRS:marscwq:1,2016-01-08T02:30:00Z,27.8383,-97.0503,0.0,15.3,2 
NERRS,ioos:station:NOAA.NERRS:marscwq:1,2016-01-08T04:30:00Z,27.8383,-97.0503,0.0,15.4,2 
NERRS,ioos:station:NOAA.NERRS:marscwq:1,2016-01-08T05:30:00Z,27.8383,-97.0503,0.0,15.4,2 
NERRS,ioos:station:NOAA.NERRS:marscwq:1,2016-01-08T06:30:00Z,27.8383,-97.0503,0.0,15.4,2 
NERRS,ioos:station:NOAA.NERRS:marscwq:1,2016-01-08T07:30:00Z,27.8383,-97.0503,0.0,15.3,2 
NERRS,ioos:station:NOAA.NERRS:marscwq:1,2016-01-08T09:30:00Z,27.8383,-97.0503,0.0,15.4,2 
NERRS,ioos:station:NOAA.NERRS:marscwq:1,2016-01-08T10:30:00Z,27.8383,-97.0503,0.0,15.3,2 
NERRS,ioos:station:NOAA.NERRS:marscwq:1,2016-01-08T11:30:00Z,27.8383,-97.0503,0.0,15.2,2 
NERRS,ioos:station:NOAA.NERRS:marscwq:1,2016-01-08T14:30:00Z,27.8383,-97.0503,0.0,14.6,2 
NERRS,ioos:station:NOAA.NERRS:marscwq:1,2016-01-08T15:30:00Z,27.8383,-97.0503,0.0,14.5,2 
NERRS,ioos:station:NOAA.NERRS:marscwq:1,2016-01-08T16:30:00Z,27.8383,-97.0503,0.0,14.5,2 
NERRS,ioos:station:NOAA.NERRS:marscwq:1,2016-01-08T19:30:00Z,27.8383,-97.0503,0.0,14.4,2 
NERRS,ioos:station:NOAA.NERRS:marscwq:1,2016-01-08T20:30:00Z,27.8383,-97.0503,0.0,14.4,2 
NERRS,ioos:station:NOAA.NERRS:marscwq:1,2016-01-08T22:30:00Z,27.8383,-97.0503,0.0,15.4,2 
NERRS,ioos:station:NOAA.NERRS:marscwq:1,2016-01-08T23:30:00Z,27.8383,-97.0503,0.0,15.3,2 
NERRS,ioos:station:NOAA.NERRS:marscwq:1,2016-01-09T01:30:00Z,27.8383,-97.0503,0.0,15.4,2 
NERRS,ioos:station:NOAA.NERRS:marscwq:1,2016-01-09T05:30:00Z,27.8383,-97.0503,0.0,15.6,2 
NERRS,ioos:station:NOAA.NERRS:marscwq:1,2016-01-09T06:30:00Z,27.8383,-97.0503,0.0,15.6,2 
NERRS,ioos:station:NOAA.NERRS:marscwq:1,2016-01-09T07:30:00Z,27.8383,-97.0503,0.0,15.7,2 
NERRS,ioos:station:NOAA.NERRS:marscwq:1,2016-01-09T08:30:00Z,27.8383,-97.0503,0.0,15.6,2 
NERRS,ioos:station:NOAA.NERRS:marscwq:1,2016-01-09T10:00:00Z,27.8383,-97.0503,0.0,15.5,2 
NERRS,ioos:station:NOAA.NERRS:marscwq:1,2016-01-09T11:30:00Z,27.8383,-97.0503,0.0,15.3,2 
NERRS,ioos:station:NOAA.NERRS:marscwq:1,2016-01-09T12:30:00Z,27.8383,-97.0503,0.0,15.0,2 
NERRS,ioos:station:NOAA.NERRS:marscwq:1,2016-01-09T13:30:00Z,27.8383,-97.0503,0.0,14.7,2 
NERRS,ioos:station:NOAA.NERRS:marscwq:1,2016-01-09T14:30:00Z,27.8383,-97.0503,0.0,14.4,2 
NERRS,ioos:station:NOAA.NERRS:marscwq:1,2016-01-09T15:30:00Z,27.8383,-97.0503,0.0,14.2,2 
NERRS,ioos:station:NOAA.NERRS:marscwq:1,2016-01-09T16:30:00Z,27.8383,-97.0503,0.0,14.1,2 
NERRS,ioos:station:NOAA.NERRS:marscwq:1,2016-01-09T17:30:00Z,27.8383,-97.0503,0.0,14.1,2 
NERRS,ioos:station:NOAA.NERRS:marscwq:1,2016-01-09T18:30:00Z,27.8383,-97.0503,0.0,14.1,2 
NERRS,ioos:station:NOAA.NERRS:marscwq:1,2016-01-09T19:30:00Z,27.8383,-97.0503,0.0,14.1,2 
NERRS,ioos:station:NOAA.NERRS:marscwq:1,2016-01-09T20:30:00Z,27.8383,-97.0503,0.0,14.0,2 
NERRS,ioos:station:NOAA.NERRS:marscwq:1,2016-01-09T21:30:00Z,27.8383,-97.0503,0.0,14.1,2 
NERRS,ioos:station:NOAA.NERRS:marscwq:1,2016-01-09T22:30:00Z,27.8383,-97.0503,0.0,15.4,2 
NERRS,ioos:station:NOAA.NERRS:marscwq:1,2016-01-09T23:30:00Z,27.8383,-97.0503,0.0,15.4,2 
NERRS,ioos:station:NOAA.NERRS:marscwq:1,2016-01-10T00:30:00Z,27.8383,-97.0503,0.0,15.3,2 
NERRS,ioos:station:NOAA.NERRS:marscwq:1,2016-01-10T01:30:00Z,27.8383,-97.0503,0.0,15.3,2 
NERRS,ioos:station:NOAA.NERRS:marscwq:1,2016-01-10T02:30:00Z,27.8383,-97.0503,0.0,15.2,2 
NERRS,ioos:station:NOAA.NERRS:marscwq:1,2016-01-10T03:30:00Z,27.8383,-97.0503,0.0,15.2,2 
NERRS,ioos:station:NOAA.NERRS:marscwq:1,2016-01-10T04:30:00Z,27.8383,-97.0503,0.0,15.2,2 
NERRS,ioos:station:NOAA.NERRS:marscwq:1,2016-01-10T05:30:00Z,27.8383,-97.0503,0.0,15.0,2 
NERRS,ioos:station:NOAA.NERRS:marscwq:1,2016-01-10T06:30:00Z,27.8383,-97.0503,0.0,14.4,2 
NERRS,ioos:station:NOAA.NERRS:marscwq:1,2016-01-10T07:30:00Z,27.8383,-97.0503,0.0,13.9,2 
NERRS,ioos:station:NOAA.NERRS:marscwq:1,2016-01-10T08:30:00Z,27.8383,-97.0503,0.0,13.4,2 
NERRS,ioos:station:NOAA.NERRS:marscwq:1,2016-01-10T09:30:00Z,27.8383,-97.0503,0.0,13.1,2 
NERRS,ioos:station:NOAA.NERRS:marscwq:1,2016-01-10T10:30:00Z,27.8383,-97.0503,0.0,13.2,2 
NERRS,ioos:station:NOAA.NERRS:marscwq:1,2016-01-10T11:30:00Z,27.8383,-97.0503,0.0,13.7,2 
NERRS,ioos:station:NOAA.NERRS:marscwq:1,2016-01-10T12:30:00Z,27.8383,-97.0503,0.0,12.8,2 
NERRS,ioos:station:NOAA.NERRS:marscwq:1,2016-01-10T13:30:00Z,27.8383,-97.0503,0.0,12.5,2 
NERRS,ioos:station:NOAA.NERRS:marscwq:1,2016-01-10T14:30:00Z,27.8383,-97.0503,0.0,12.3,2 
NERRS,ioos:station:NOAA.NERRS:marscwq:1,2016-01-10T15:30:00Z,27.8383,-97.0503,0.0,12.2,2 
NERRS,ioos:station:NOAA.NERRS:marscwq:1,2016-01-10T16:30:00Z,27.8383,-97.0503,0.0,12.5,2 
NERRS,ioos:station:NOAA.NERRS:marscwq:1,2016-01-10T17:30:00Z,27.8383,-97.0503,0.0,12.6,2 
NERRS,ioos:station:NOAA.NERRS:marscwq:1,2016-01-10T18:30:00Z,27.8383,-97.0503,0.0,12.6,2 
NERRS,ioos:station:NOAA.NERRS:marscwq:1,2016-01-10T21:30:00Z,27.8383,-97.0503,0.0,12.8,2 
NERRS,ioos:station:NOAA.NERRS:marscwq:1,2016-01-10T22:30:00Z,27.8383,-97.0503,0.0,13.0,2 
NERRS,ioos:station:NOAA.NERRS:marscwq:1,2016-01-10T23:30:00Z,27.8383,-97.0503,0.0,14.4,2 
NERRS,ioos:station:NOAA.NERRS:marscwq:1,2016-01-11T00:30:00Z,27.8383,-97.0503,0.0,14.6,2 
NERRS,ioos:station:NOAA.NERRS:marscwq:1,2016-01-11T01:30:00Z,27.8383,-97.0503,0.0,14.2,2 
NERRS,ioos:station:NOAA.NERRS:marscwq:1,2016-01-11T02:30:00Z,27.8383,-97.0503,0.0,14.3,2 
NERRS,ioos:station:NOAA.NERRS:marscwq:1,2016-01-11T03:30:00Z,27.8383,-97.0503,0.0,14.4,2 
NERRS,ioos:station:NOAA.NERRS:marscwq:1,2016-01-11T04:30:00Z,27.8383,-97.0503,0.0,14.6,2 
NERRS,ioos:station:NOAA.NERRS:marscwq:1,2016-01-11T05:30:00Z,27.8383,-97.0503,0.0,14.7,2 
NERRS,ioos:station:NOAA.NERRS:marscwq:1,2016-01-11T06:30:00Z,27.8383,-97.0503,0.0,14.6,2 
NERRS,ioos:station:NOAA.NERRS:marscwq:1,2016-01-11T07:30:00Z,27.8383,-97.0503,0.0,14.6,2 
NERRS,ioos:station:NOAA.NERRS:marscwq:1,2016-01-11T08:30:00Z,27.8383,-97.0503,0.0,14.5,2 
NERRS,ioos:station:NOAA.NERRS:marscwq:1,2016-01-11T10:00:00Z,27.8383,-97.0503,0.0,14.5,2 
NERRS,ioos:station:NOAA.NERRS:marscwq:1,2016-01-11T10:30:00Z,27.8383,-97.0503,0.0,14.4,2 
NERRS,ioos:station:NOAA.NERRS:marscwq:1,2016-01-11T11:30:00Z,27.8383,-97.0503,0.0,14.4,2 
NERRS,ioos:station:NOAA.NERRS:marscwq:1,2016-01-11T12:30:00Z,27.8383,-97.0503,0.0,14.4,2 
NERRS,ioos:station:NOAA.NERRS:marscwq:1,2016-01-11T14:30:00Z,27.8383,-97.0503,0.0,13.1,2 
NERRS,ioos:station:NOAA.NERRS:marscwq:1,2016-01-11T15:30:00Z,27.8383,-97.0503,0.0,12.6,2 
NERRS,ioos:station:NOAA.NERRS:marscwq:1,2016-01-11T16:30:00Z,27.8383,-97.0503,0.0,12.4,2 
NERRS,ioos:station:NOAA.NERRS:marscwq:1,2016-01-11T18:30:00Z,27.8383,-97.0503,0.0,12.5,2 
NERRS,ioos:station:NOAA.NERRS:marscwq:1,2016-01-11T19:30:00Z,27.8383,-97.0503,0.0,12.3,2 
NERRS,ioos:station:NOAA.NERRS:marscwq:1,2016-01-11T20:30:00Z,27.8383,-97.0503,0.0,12.2,2 
NERRS,ioos:station:NOAA.NERRS:marscwq:1,2016-01-11T21:30:00Z,27.8383,-97.0503,0.0,13.5,2 
NERRS,ioos:station:NOAA.NERRS:marscwq:1,2016-01-11T22:30:00Z,27.8383,-97.0503,0.0,14.5,2 
NERRS,ioos:station:NOAA.NERRS:marscwq:1,2016-01-11T23:30:00Z,27.8383,-97.0503,0.0,14.6,2 
NERRS,ioos:station:NOAA.NERRS:marscwq:1,2016-01-12T00:30:00Z,27.8383,-97.0503,0.0,14.6,2 
NERRS,ioos:station:NOAA.NERRS:marscwq:1,2016-01-12T01:30:00Z,27.8383,-97.0503,0.0,14.6,2 
NERRS,ioos:station:NOAA.NERRS:marscwq:1,2016-01-12T02:30:00Z,27.8383,-97.0503,0.0,14.6,2 
NERRS,ioos:station:NOAA.NERRS:marscwq:1,2016-01-12T03:30:00Z,27.8383,-97.0503,0.0,14.5,2 
NERRS,ioos:station:NOAA.NERRS:marscwq:1,2016-01-12T04:30:00Z,27.8383,-97.0503,0.0,14.5,2 
NERRS,ioos:station:NOAA.NERRS:marscwq:1,2016-01-12T05:30:00Z,27.8383,-97.0503,0.0,14.5,2 
NERRS,ioos:station:NOAA.NERRS:marscwq:1,2016-01-12T07:30:00Z,27.8383,-97.0503,0.0,14.5,2 
NERRS,ioos:station:NOAA.NERRS:marscwq:1,2016-01-12T09:30:00Z,27.8383,-97.0503,0.0,14.5,2 
NERRS,ioos:station:NOAA.NERRS:marscwq:1,2016-01-12T12:30:00Z,27.8383,-97.0503,0.0,14.4,2 
NERRS,ioos:station:NOAA.NERRS:marscwq:1,2016-01-13T01:30:00Z,27.8383,-97.0503,0.0,14.7,2 
NERRS,ioos:station:NOAA.NERRS:marscwq:1,2016-01-13T02:30:00Z,27.8383,-97.0503,0.0,14.8,2 
NERRS,ioos:station:NOAA.NERRS:marscwq:1,2016-01-13T03:30:00Z,27.8383,-97.0503,0.0,14.9,2 
NERRS,ioos:station:NOAA.NERRS:marscwq:1,2016-01-13T04:30:00Z,27.8383,-97.0503,0.0,15.0,2 
NERRS,ioos:station:NOAA.NERRS:marscwq:1,2016-01-13T05:30:00Z,27.8383,-97.0503,0.0,15.1,2 
NERRS,ioos:station:NOAA.NERRS:marscwq:1,2016-01-13T06:30:00Z,27.8383,-97.0503,0.0,15.1,2 
NERRS,ioos:station:NOAA.NERRS:marscwq:1,2016-01-13T07:30:00Z,27.8383,-97.0503,0.0,14.9,2 
NERRS,ioos:station:NOAA.NERRS:marscwq:1,2016-01-13T08:30:00Z,27.8383,-97.0503,0.0,15.0,2 
NERRS,ioos:station:NOAA.NERRS:marscwq:1,2016-01-13T09:30:00Z,27.8383,-97.0503,0.0,15.1,2 
NERRS,ioos:station:NOAA.NERRS:marscwq:1,2016-01-13T10:30:00Z,27.8383,-97.0503,0.0,14.9,2 
NERRS,ioos:station:NOAA.NERRS:marscwq:1,2016-01-13T11:30:00Z,27.8383,-97.0503,0.0,14.8,2 
NERRS,ioos:station:NOAA.NERRS:marscwq:1,2016-01-13T12:30:00Z,27.8383,-97.0503,0.0,14.7,2 
NERRS,ioos:station:NOAA.NERRS:marscwq:1,2016-01-13T13:30:00Z,27.8383,-97.0503,0.0,14.6,2 
NERRS,ioos:station:NOAA.NERRS:marscwq:1,2016-01-13T14:30:00Z,27.8383,-97.0503,0.0,14.5,2 
NERRS,ioos:station:NOAA.NERRS:marscwq:1,2016-01-13T17:30:00Z,27.8383,-97.0503,0.0,13.5,2 
NERRS,ioos:station:NOAA.NERRS:marscwq:1,2016-01-13T20:30:00Z,27.8383,-97.0503,0.0,13.4,2 
NERRS,ioos:station:NOAA.NERRS:marscwq:1,2016-01-13T21:30:00Z,27.8383,-97.0503,0.0,13.4,2 
NERRS,ioos:station:NOAA.NERRS:marscwq:1,2016-01-13T22:30:00Z,27.8383,-97.0503,0.0,13.5,2 
NERRS,ioos:station:NOAA.NERRS:marscwq:1,2016-01-14T00:00:00Z,27.8383,-97.0503,0.0,14.8,2 
NERRS,ioos:station:NOAA.NERRS:marscwq:1,2016-01-14T01:30:00Z,27.8383,-97.0503,0.0,15.0,2 
NERRS,ioos:station:NOAA.NERRS:marscwq:1,2016-01-14T02:30:00Z,27.8383,-97.0503,0.0,15.0,2 
NERRS,ioos:station:NOAA.NERRS:marscwq:1,2016-01-14T03:30:00Z,27.8383,-97.0503,0.0,15.0,2 
NERRS,ioos:station:NOAA.NERRS:marscwq:1,2016-01-14T04:30:00Z,27.8383,-97.0503,0.0,15.0,2 
NERRS,ioos:station:NOAA.NERRS:marscwq:1,2016-01-14T05:30:00Z,27.8383,-97.0503,0.0,15.0,2 
NERRS,ioos:station:NOAA.NERRS:marscwq:1,2016-01-14T06:30:00Z,27.8383,-97.0503,0.0,15.0,2 
NERRS,ioos:station:NOAA.NERRS:marscwq:1,2016-01-14T07:30:00Z,27.8383,-97.0503,0.0,14.9,2 
NERRS,ioos:station:NOAA.NERRS:marscwq:1,2016-01-14T11:30:00Z,27.8383,-97.0503,0.0,14.9,2 
NERRS,ioos:station:NOAA.NERRS:marscwq:1,2016-01-14T15:30:00Z,27.8383,-97.0503,0.0,14.9,2 
NERRS,ioos:station:NOAA.NERRS:marscwq:1,2016-01-14T16:30:00Z,27.8383,-97.0503,0.0,14.9,2 
NERRS,ioos:station:NOAA.NERRS:marscwq:1,2016-01-14T20:30:00Z,27.8383,-97.0503,0.0,15.1,2 
NERRS,ioos:station:NOAA.NERRS:marscwq:1,2016-01-15T02:30:00Z,27.8383,-97.0503,0.0,15.2,2 
NERRS,ioos:station:NOAA.NERRS:marscwq:1,2016-01-15T03:30:00Z,27.8383,-97.0503,0.0,15.2,2 
NERRS,ioos:station:NOAA.NERRS:marscwq:1,2016-01-15T04:30:00Z,27.8383,-97.0503,0.0,15.1,2 
NERRS,ioos:station:NOAA.NERRS:marscwq:1,2016-01-15T05:30:00Z,27.8383,-97.0503,0.0,15.1,2 
NERRS,ioos:station:NOAA.NERRS:marscwq:1,2016-01-15T06:30:00Z,27.8383,-97.0503,0.0,15.1,2 
NERRS,ioos:station:NOAA.NERRS:marscwq:1,2016-01-15T08:30:00Z,27.8383,-97.0503,0.0,15.1,2 
NERRS,ioos:station:NOAA.NERRS:marscwq:1,2016-01-15T10:00:00Z,27.8383,-97.0503,0.0,15.1,2 
NERRS,ioos:station:NOAA.NERRS:marscwq:1,2016-01-15T13:30:00Z,27.8383,-97.0503,0.0,14.9,2 
NERRS,ioos:station:NOAA.NERRS:marscwq:1,2016-01-15T16:30:00Z,27.8383,-97.0503,0.0,15.0,2 
NERRS,ioos:station:NOAA.NERRS:marscwq:1,2016-01-15T17:30:00Z,27.8383,-97.0503,0.0,15.0,2 
NERRS,ioos:station:NOAA.NERRS:marscwq:1,2016-01-15T18:30:00Z,27.8383,-97.0503,0.0,14.9,2 
NERRS,ioos:station:NOAA.NERRS:marscwq:1,2016-01-15T19:30:00Z,27.8383,-97.0503,0.0,14.8,2 
NERRS,ioos:station:NOAA.NERRS:marscwq:1,2016-01-15T20:30:00Z,27.8383,-97.0503,0.0,14.8,2 
NERRS,ioos:station:NOAA.NERRS:marscwq:1,2016-01-15T21:30:00Z,27.8383,-97.0503,0.0,15.0,2 
NERRS,ioos:station:NOAA.NERRS:marscwq:1,2016-01-15T22:30:00Z,27.8383,-97.0503,0.0,15.2,2 
NERRS,ioos:station:NOAA.NERRS:marscwq:1,2016-01-15T23:30:00Z,27.8383,-97.0503,0.0,14.6,2 
NERRS,ioos:station:NOAA.NERRS:marscwq:1,2016-01-16T00:30:00Z,27.8383,-97.0503,0.0,14.8,2 
NERRS,ioos:station:NOAA.NERRS:marscwq:1,2016-01-16T01:30:00Z,27.8383,-97.0503,0.0,15.2,2 
NERRS,ioos:station:NOAA.NERRS:marscwq:1,2016-01-16T02:30:00Z,27.8383,-97.0503,0.0,15.2,2 
NERRS,ioos:station:NOAA.NERRS:marscwq:1,2016-01-16T03:30:00Z,27.8383,-97.0503,0.0,15.3,2 
NERRS,ioos:station:NOAA.NERRS:marscwq:1,2016-01-16T05:30:00Z,27.8383,-97.0503,0.0,15.3,2 
NERRS,ioos:station:NOAA.NERRS:marscwq:1,2016-01-16T06:30:00Z,27.8383,-97.0503,0.0,15.3,2 
NERRS,ioos:station:NOAA.NERRS:marscwq:1,2016-01-16T08:30:00Z,27.8383,-97.0503,0.0,15.1,2 
NERRS,ioos:station:NOAA.NERRS:marscwq:1,2016-01-16T13:30:00Z,27.8383,-97.0503,0.0,14.8,2 
NERRS,ioos:station:NOAA.NERRS:marscwq:1,2016-01-16T14:30:00Z,27.8383,-97.0503,0.0,14.8,2 
NERRS,ioos:station:NOAA.NERRS:marscwq:1,2016-01-16T15:30:00Z,27.8383,-97.0503,0.0,14.8,2 
NERRS,ioos:station:NOAA.NERRS:marscwq:1,2016-01-16T16:30:00Z,27.8383,-97.0503,0.0,14.7,2 
NERRS,ioos:station:NOAA.NERRS:marscwq:1,2016-01-16T17:30:00Z,27.8383,-97.0503,0.0,14.7,2 
NERRS,ioos:station:NOAA.NERRS:marscwq:1,2016-01-16T18:30:00Z,27.8383,-97.0503,0.0,14.7,2 
NERRS,ioos:station:NOAA.NERRS:marscwq:1,2016-01-16T21:30:00Z,27.8383,-97.0503,0.0,15.0,2 
NERRS,ioos:station:NOAA.NERRS:marscwq:1,2016-01-16T22:30:00Z,27.8383,-97.0503,0.0,14.9,2 
NERRS,ioos:station:NOAA.NERRS:marscwq:1,2016-01-16T23:30:00Z,27.8383,-97.0503,0.0,14.7,2 
NERRS,ioos:station:NOAA.NERRS:marscwq:1,2016-01-17T00:30:00Z,27.8383,-97.0503,0.0,14.8,2 
NERRS,ioos:station:NOAA.NERRS:marscwq:1,2016-01-17T01:30:00Z,27.8383,-97.0503,0.0,15.3,2 
NERRS,ioos:station:NOAA.NERRS:marscwq:1,2016-01-17T02:30:00Z,27.8383,-97.0503,0.0,15.3,2 
NERRS,ioos:station:NOAA.NERRS:marscwq:1,2016-01-17T10:30:00Z,27.8383,-97.0503,0.0,14.0,2 
NERRS,ioos:station:NOAA.NERRS:marscwq:1,2016-01-17T11:30:00Z,27.8383,-97.0503,0.0,14.6,2 
NERRS,ioos:station:NOAA.NERRS:marscwq:1,2016-01-17T15:30:00Z,27.8383,-97.0503,0.0,14.5,2 
NERRS,ioos:station:NOAA.NERRS:marscwq:1,2016-01-17T16:30:00Z,27.8383,-97.0503,0.0,14.6,2 
NERRS,ioos:station:NOAA.NERRS:marscwq:1,2016-01-17T17:30:00Z,27.8383,-97.0503,0.0,14.7,2 
NERRS,ioos:station:NOAA.NERRS:marscwq:1,2016-01-17T20:30:00Z,27.8383,-97.0503,0.0,14.8,2 
NERRS,ioos:station:NOAA.NERRS:marscwq:1,2016-01-17T22:30:00Z,27.8383,-97.0503,0.0,14.8,2 
NERRS,ioos:station:NOAA.NERRS:marscwq:1,2016-01-17T23:30:00Z,27.8383,-97.0503,0.0,14.8,2 
NERRS,ioos:station:NOAA.NERRS:marscwq:1,2016-01-18T02:30:00Z,27.8383,-97.0503,0.0,14.8,2 
NERRS,ioos:station:NOAA.NERRS:marscwq:1,2016-01-18T03:30:00Z,27.8383,-97.0503,0.0,14.8,2 
NERRS,ioos:station:NOAA.NERRS:marscwq:1,2016-01-18T06:30:00Z,27.8383,-97.0503,0.0,14.7,2 
NERRS,ioos:station:NOAA.NERRS:marscwq:1,2016-01-18T07:30:00Z,27.8383,-97.0503,0.0,14.6,2 
NERRS,ioos:station:NOAA.NERRS:marscwq:1,2016-01-18T11:30:00Z,27.8383,-97.0503,0.0,13.7,2 
NERRS,ioos:station:NOAA.NERRS:marscwq:1,2016-01-18T14:30:00Z,27.8383,-97.0503,0.0,13.6,2 
NERRS,ioos:station:NOAA.NERRS:marscwq:1,2016-01-18T15:30:00Z,27.8383,-97.0503,0.0,13.6,2 
NERRS,ioos:station:NOAA.NERRS:marscwq:1,2016-01-18T16:30:00Z,27.8383,-97.0503,0.0,13.8,2 
NERRS,ioos:station:NOAA.NERRS:marscwq:1,2016-01-18T22:30:00Z,27.8383,-97.0503,0.0,14.9,2 
NERRS,ioos:station:NOAA.NERRS:marscwq:1,2016-01-19T01:30:00Z,27.8383,-97.0503,0.0,14.9,2 
NERRS,ioos:station:NOAA.NERRS:marscwq:1,2016-01-19T02:30:00Z,27.8383,-97.0503,0.0,14.9,2 
NERRS,ioos:station:NOAA.NERRS:marscwq:1,2016-01-19T05:30:00Z,27.8383,-97.0503,0.0,14.9,2 
NERRS,ioos:station:NOAA.NERRS:marscwq:1,2016-01-19T06:30:00Z,27.8383,-97.0503,0.0,14.9,2 
NERRS,ioos:station:NOAA.NERRS:marscwq:1,2016-01-19T07:30:00Z,27.8383,-97.0503,0.0,14.9,2 
NERRS,ioos:station:NOAA.NERRS:marscwq:1,2016-01-19T08:30:00Z,27.8383,-97.0503,0.0,14.8,2 
NERRS,ioos:station:NOAA.NERRS:marscwq:1,2016-01-19T10:00:00Z,27.8383,-97.0503,0.0,14.7,2 
NERRS,ioos:station:NOAA.NERRS:marscwq:1,2016-01-19T10:30:00Z,27.8383,-97.0503,0.0,14.6,2 
NERRS,ioos:station:NOAA.NERRS:marscwq:1,2016-01-19T12:30:00Z,27.8383,-97.0503,0.0,14.3,2 
NERRS,ioos:station:NOAA.NERRS:marscwq:1,2016-01-19T13:30:00Z,27.8383,-97.0503,0.0,14.2,2 
NERRS,ioos:station:NOAA.NERRS:marscwq:1,2016-01-19T14:30:00Z,27.8383,-97.0503,0.0,14.2,2 
NERRS,ioos:station:NOAA.NERRS:marscwq:1,2016-01-19T15:30:00Z,27.8383,-97.0503,0.0,14.1,2 
NERRS,ioos:station:NOAA.NERRS:marscwq:1,2016-01-19T16:30:00Z,27.8383,-97.0503,0.0,14.1,2 
NERRS,ioos:station:NOAA.NERRS:marscwq:1,2016-01-19T17:30:00Z,27.8383,-97.0503,0.0,14.1,2 
NERRS,ioos:station:NOAA.NERRS:marscwq:1,2016-01-19T18:30:00Z,27.8383,-97.0503,0.0,14.2,2 
NERRS,ioos:station:NOAA.NERRS:marscwq:1,2016-01-19T20:30:00Z,27.8383,-97.0503,0.0,15.1,2 